Location: Bavegemberg
(50.9500°N, 3.8833°E)
Time: 21:58:31
(UTC+00:00)

FENGYUN 1C DEB - Pass Details

Date: 09 October 2024
Orbit: 755 x 948 km, 98.7° (Epoch: 11 November)

Event Time Altitude Azimuth Distance (km) Brightness Sun altitude
Exits shadow 22:45:03 14° 3° (N) 2,239 ? -44.7°
Drops below altitude 10° 22:45:56 10° 359° (N) 2,539 ? -44.8°
Sets 22:48:34 0° 350° (N) 3,513 ? -44.9°
